User: anonymous
Location: Unspecified
(0.0000°N, 0.0000°E)
Time: 23:33:07
(UTC+02:00)
Language:

Cosmos 1263 Rocket - Orbit

View from above orbital plane
View from above orbital plane
View from above satellite
View from above satellite

Ground track
Ground track

The orbit data is extracted from the following two-line orbital elements,

1 12389U 81033B   14114.49404103  .00031704  00000-0  52478-3 0  9516
2 12389 082.8763 159.1898 0221314 306.5788 051.5762 15.29148819701529
Epoch (UTC): 24 April 2014 11:51:25
Eccentricity: 0.0221314
inclination: 82.8763°
perigee height: 326 km
apogee height: 630 km
right ascension of ascending node: 159.1898°
argument of perigee: 306.5788°
revolutions per day: 15.29148819
mean anomaly at epoch: 51.5762°
orbit number at epoch: 70152

The dashed part of the orbit path shows where the satellite is in the earth's shadow,  

DLR